[ hide orbit diagram ]
For accurate long-term ephemerides, please instead use our Horizons system.This orbit viewer was implemented using two-body methods, and hence should not be used for determining accurate long-term trajectories (over several years or decades) or planetary encounter circumstances.
Orbital Elements at Epoch 2459200.5 (2020-Dec-17.0) TDB
Reference: JPL 43 (heliocentric ecliptic J2000)
Element | Value | Uncertainty (1-sigma) | Units |
e | .07675235428992415 | 2.0538e-08 | |
a | 3.000167233990609 | 1.5761e-08 | au |
q | 2.76989733551834 | 6.6415e-08 | au |
i | 10.38269681210957 | 8.671e-07 | deg |
node | 14.24803864658644 | 6.5828e-06 | deg |
peri | 286.3308941869922 | 1.5059e-05 | deg |
M | 241.4544941087033 | 1.4879e-05 | deg |
tp | 2459825.527629573986 (2022-Sep-03.02762957) | 7.934e-05 | TDB |
period | 1898.089218607439 5.20 | 1.4957e-05 4.095e-08 | d yr |
n | .1896644248704596 | 1.4945e-09 | deg/d |
Q | 3.230437132462878 | 1.697e-08 | au |
|
| | Orbit Determination Parameters
Additional Information
|
[ show covariance matrix ]
Physical Parameter Table
Parameter |
Symbol |
Value |
Units |
Sigma |
Reference |
Notes |
absolute magnitude |
H |
12.45 |
|
n/a |
E2021B10 |
|
diameter |
diameter |
10.981 |
km |
0.267 |
urn:nasa:pds:neowise_diameters_albedos::2.0[mainbelt] (http://adsabs.harvard.edu/abs/2011ApJ...741...68M) |
|
geometric albedo |
albedo |
0.193 |
|
0.033 |
urn:nasa:pds:neowise_diameters_albedos::2.0[mainbelt] (http://adsabs.harvard.edu/abs/2011ApJ...741...68M) |
|
|
6357 Glushko (1976 SK3) Discovered 1976-Sep-24 by Chernykh, N. S. at Nauchnyj |
Reference: DISCOVERY.DB | Last Updated: 2003-08-29 |
|
[ hide close-approach data ]
Close-Approach Data ...sorted by Date/Time (TDB)
|
Date/Time (TDB) |
Time Uncertainty (days_HH:MM) |
Body |
Nominal Distance (au) |
Minimum Distance (au) |
Maximum Distance (au) |
V-relative (km/s) |
V-infinity (km/s) |
JD (TDB) |
Time Uncertainty (minutes) |
Semi-major axis (km) |
Semi-minor axis (km) |
range-LOV angle (deg) |
N-sigma |
BP |
Orbit Ref. |
Reference |
Modified |
1940-Dec-10 03:34 |
00:02 |
Jupiter |
1.97812768313878 |
1.97812749397676 |
1.97812787230081 |
4.04242777181995 |
3.93507740438514 |
2429973.648430232 |
1.69636563323238 |
19.2969417951286 |
10.5543220830916 |
88.6175934470146 |
4848804.53015101 |
T |
43 |
CATAB v2.0f-lin.ifort 2021-Mar-16 18:48:29 |
2021-Mar-16 18:48 |
2024-Feb-21 20:36 |
< 00:01 |
Jupiter |
1.99228930873107 |
1.99228911165909 |
1.99228950580306 |
3.88784564994611 |
3.77690919652974 |
2460362.358109165 |
0.263798849265231 |
16.9367889855373 |
7.41489443549409 |
-72.1608473266178 |
10438584.680709 |
T |
43 |
CATAB v2.0f-lin.ifort 2021-Mar-16 18:48:29 |
2021-Mar-16 18:48 |
|
|